User: anonymous   Login
Location: Unspecified
(0.0000°N, 0.0000°E)
Time: 03:02:19
(UTC+00:00)
Language:

METEOR M2-2 - Orbit

View from above orbital plane
View from above orbital plane
View from above satellite
View from above satellite

Ground track
Ground track

The orbit data is extracted from the following two-line orbital elements,

1 44387U 19038A   19229.17931938 -.00000033  00000-0  43164-5 0  9991
2 44387  98.5724 191.1235 0001390   6.9155 353.2042 14.23333505  6109
Epoch (UTC): 17 August 2019 04:18:13
Eccentricity: 0.0001390
inclination: 98.5724°
perigee height: 813 km
apogee height: 815 km
right ascension of ascending node: 191.1235°
argument of perigee: 6.9155°
revolutions per day: 14.23333505
mean anomaly at epoch: 353.2042°
orbit number at epoch: 610

The dashed part of the orbit path shows where the satellite is in the earth's shadow,  

DLR